| time (UTC) | temp F | wind direction | speed MPH | gust MPH | rain 1hr in | rain 24hr in | rain mn in | humidity % | barometer mb |
| 20260902212544 | 80 | 197 | 0.0 | 2.0 | 0.00 | 0.31 | 0.31 | 85 | 1017.9 |
| 20260902211602 | 80 | 148 | 0.0 | 1.0 | 0.01 | 0.31 | 0.31 | 84 | 1014.7 |
| 20260902210744 | 80 | 168 | 0.0 | 2.0 | 0.01 | 0.31 | 0.31 | 85 | 1018.1 |
| 20260902210007 | 79 | 169 | 0.0 | 3.0 | 0.01 | 0.31 | 0.31 | 86 | 1014.8 |
| 20260902205844 | 79 | 199 | 0.0 | 2.0 | 0.01 | 0.31 | 0.31 | 86 | 1018.2 |
| 20260902204944 | 79 | 198 | 0.0 | 2.0 | 0.01 | 0.31 | 0.31 | 86 | 1018.2 |
| 20260902204602 | 79 | 194 | 0.0 | 3.0 | 0.01 | 0.31 | 0.31 | 86 | 1015.1 |
| 20260902203144 | 79 | 208 | 0.0 | 1.0 | 0.01 | 0.31 | 0.31 | 87 | 1018.5 |
| 20260902203002 | 79 | 195 | 0.0 | 1.0 | 0.01 | 0.31 | 0.31 | 88 | 1015.2 |
| 20260902202244 | 78 | 155 | 0.0 | 1.0 | 0.01 | 0.31 | 0.31 | 87 | 1018.5 |
| 20260902201609 | 78 | 155 | 0.0 | 1.0 | 0.00 | 0.30 | 0.30 | 86 | 1015.6 |
| 20260902200444 | 79 | 129 | 0.0 | 2.0 | 0.00 | 0.30 | 0.30 | 87 | 1018.7 |
| 20260902200002 | 78 | 114 | 0.0 | 2.0 | 0.00 | 0.30 | 0.30 | 87 | 1015.4 |
| 20260902195544 | 79 | 170 | 0.0 | 3.0 | 0.00 | 0.30 | 0.30 | 86 | 1018.8 |
| 20260902194644 | 79 | 149 | 0.0 | 3.0 | 0.00 | 0.30 | 0.30 | 87 | 1018.8 |
| 20260902194603 | 78 | 155 | 0.0 | 3.0 | 0.00 | 0.30 | 0.30 | 87 | 1015.5 |
| 20260902193004 | 76 | 67 | 0.0 | 3.0 | 0.00 | 0.30 | 0.30 | 89 | 1015.4 |
| 20260902192844 | 77 | 181 | 0.0 | 3.0 | 0.00 | 0.30 | 0.30 | 90 | 1018.8 |
| 20260902191944 | 75 | 0 | 0.0 | 0.0 | 0.00 | 0.30 | 0.30 | 92 | 1019.0 |
| 20260902191634 | 75 | 130 | 0.0 | 1.0 | 0.00 | 0.30 | 0.30 | 93 | 1015.7 |
| 20260902191044 | 75 | 147 | 0.0 | 1.0 | 0.00 | 0.30 | 0.30 | 93 | 1019.1 |
| 20260902190145 | 74 | 0 | 0.0 | 0.0 | 0.00 | 0.30 | 0.30 | 94 | 1019.2 |
| 20260902190004 | 74 | 149 | 0.0 | 1.0 | 0.00 | 0.30 | 0.30 | 93 | 1015.9 |
| 20260902185244 | 73 | 149 | 0.0 | 1.0 | 0.00 | 0.30 | 0.30 | 94 | 1019.2 |
| 20260902184603 | 73 | 47 | 0.0 | 0.0 | 0.00 | 0.30 | 0.30 | 94 | 1016.3 |
| 20260902184344 | 73 | 0 | 0.0 | 0.0 | 0.01 | 0.30 | 0.30 | 95 | 1019.4 |
| 20260902183444 | 72 | 38 | 0.0 | 2.0 | 0.07 | 0.30 | 0.30 | 95 | 1019.5 |
| 20260902183005 | 72 | 47 | 0.0 | 2.0 | 0.08 | 0.30 | 0.30 | 95 | 1016.4 |
| 20260902182544 | 72 | 138 | 0.0 | 2.0 | 0.08 | 0.30 | 0.30 | 96 | 1019.6 |
| 20260902181644 | 71 | 166 | 0.0 | 1.0 | 0.13 | 0.30 | 0.30 | 98 | 1019.5 |
| 20260902181612 | 71 | 167 | 0.0 | 1.0 | 0.13 | 0.30 | 0.30 | 98 | 1016.3 |
| 20260902180006 | 70 | 126 | 0.0 | 1.0 | 0.13 | 0.30 | 0.30 | 98 | 1016.1 |
| 20260902175844 | 70 | 176 | 0.0 | 1.0 | 0.13 | 0.30 | 0.30 | 98 | 1019.4 |
| 20260902174609 | 69 | 212 | 0.0 | 3.0 | 0.13 | 0.30 | 0.30 | 97 | 1015.9 |
| 20260902174044 | 70 | 60 | 1.0 | 2.0 | 0.09 | 0.26 | 0.27 | 97 | 1019.7 |
| 20260902173144 | 70 | 68 | 1.0 | 2.0 | 0.05 | 0.22 | 0.22 | 97 | 1020.1 |
| 20260902173003 | 69 | 322 | 0.0 | 2.0 | 0.05 | 0.22 | 0.22 | 97 | 1016.6 |
| 20260902172244 | 70 | 51 | 1.0 | 3.0 | 0.03 | 0.19 | 0.20 | 96 | 1019.7 |
| 20260902171617 | 70 | 75 | 0.0 | 3.0 | 0.01 | 0.17 | 0.17 | 97 | 1016.2 |
| 20260902171344 | 70 | 85 | 0.0 | 2.0 | 0.01 | 0.17 | 0.17 | 97 | 1019.4 |
| 20260902170444 | 71 | 188 | 0.0 | 2.0 | 0.01 | 0.17 | 0.17 | 97 | 1018.9 |
| 20260902170002 | 70 | 191 | 0.0 | 2.0 | 0.01 | 0.17 | 0.17 | 97 | 1015.6 |
| 20260902165544 | 71 | 183 | 0.0 | 2.0 | 0.01 | 0.17 | 0.17 | 97 | 1019.0 |
| 20260902164606 | 70 | 176 | 0.0 | 2.0 | 0.01 | 0.17 | 0.17 | 97 | 1015.7 |
| 20260902163744 | 71 | 161 | 0.0 | 2.0 | 0.01 | 0.17 | 0.17 | 97 | 1019.2 |
| 20260902163003 | 70 | 113 | 0.0 | 2.0 | 0.01 | 0.17 | 0.17 | 97 | 1016.1 |
| 20260902162844 | 71 | 179 | 1.0 | 2.0 | 0.01 | 0.17 | 0.17 | 97 | 1019.6 |
| 20260902161944 | 71 | 174 | 0.0 | 2.0 | 0.00 | 0.16 | 0.16 | 98 | 1019.7 |
| 20260902160145 | 71 | 167 | 0.0 | 2.0 | 0.00 | 0.16 | 0.16 | 99 | 1020.2 |
| 20260902160002 | 70 | 156 | 0.0 | 2.0 | 0.00 | 0.16 | 0.16 | 99 | 1016.9 |
| 20260902155244 | 71 | 198 | 0.0 | 2.0 | 0.00 | 0.16 | 0.16 | 99 | 1020.3 |
| 20260902154602 | 70 | 224 | 0.0 | 1.0 | 0.00 | 0.16 | 0.16 | 99 | 1017.0 |
| 20260902154344 | 70 | 146 | 0.0 | 1.0 | 0.00 | 0.16 | 0.16 | 99 | 1020.3 |
| 20260902153444 | 70 | 170 | 0.0 | 3.0 | 0.00 | 0.16 | 0.16 | 99 | 1020.4 |
| 20260902153006 | 69 | 179 | 0.0 | 3.0 | 0.00 | 0.16 | 0.16 | 99 | 1016.9 |
| 20260902152544 | 69 | 179 | 1.0 | 3.0 | 0.00 | 0.16 | 0.16 | 99 | 1020.3 |
| 20260902151644 | 69 | 200 | 0.0 | 2.0 | 0.00 | 0.16 | 0.16 | 99 | 1020.1 |
| 20260902151602 | 68 | 200 | 0.0 | 2.0 | 0.00 | 0.16 | 0.16 | 99 | 1016.7 |
| 20260902150744 | 68 | 3 | 0.0 | 2.0 | 0.00 | 0.16 | 0.16 | 99 | 1019.9 |
| 20260902150003 | 68 | 6 | 0.0 | 1.0 | 0.01 | 0.16 | 0.16 | 99 | 1016.6 |
| 20260902145844 | 68 | 6 | 0.0 | 1.0 | 0.01 | 0.16 | 0.16 | 99 | 1020.0 |
| 20260902144944 | 68 | 0 | 0.0 | 0.0 | 0.02 | 0.16 | 0.16 | 99 | 1020.3 |
| 20260902144604 | 68 | 8 | 0.0 | 0.0 | 0.03 | 0.16 | 0.16 | 99 | 1017.2 |
| 20260902144044 | 68 | 0 | 0.0 | 0.0 | 0.05 | 0.16 | 0.16 | 99 | 1020.6 |
| 20260902143003 | 67 | 8 | 0.0 | 0.0 | 0.08 | 0.16 | 0.16 | 99 | 1017.3 |
| 20260902142244 | 68 | 0 | 0.0 | 0.0 | 0.10 | 0.16 | 0.16 | 99 | 1020.5 |
| 20260902141603 | 67 | 8 | 0.0 | 0.0 | 0.11 | 0.16 | 0.16 | 99 | 1017.1 |
| 20260902140444 | 68 | 9 | 0.0 | 1.0 | 0.13 | 0.16 | 0.16 | 99 | 1020.3 |
| 20260902140003 | 67 | 8 | 0.0 | 1.0 | 0.12 | 0.15 | 0.15 | 99 | 1017.1 |
| 20260902134644 | 67 | 0 | 0.0 | 0.0 | 0.12 | 0.13 | 0.13 | 99 | 1019.8 |
| 20260902134506 | 67 | 8 | 0.0 | 0.0 | 0.12 | 0.13 | 0.13 | 99 | 1016.7 |
| 20260902133744 | 67 | 25 | 0.0 | 2.0 | 0.10 | 0.10 | 0.11 | 99 | 1020.3 |
| 20260902133108 | 67 | 81 | 0.0 | 0.0 | 0.08 | 0.08 | 0.08 | 99 | 1017.4 |
| 20260902132844 | 67 | 0 | 0.0 | 0.0 | 0.07 | 0.07 | 0.07 | 99 | 1020.7 |
| 20260902131043 | 67 | 0 | 0.0 | 0.0 | 0.04 | 0.04 | 0.04 | 99 | 1020.2 |
| 20260902125244 | 67 | 0 | 0.0 | 0.0 | 0.02 | 0.02 | 0.02 | 99 | 1020.4 |
| 20260902124506 | 67 | 80 | 0.0 | 0.0 | 0.01 | 0.01 | 0.01 | 99 | 1017.1 |
| 20260902124344 | 67 | 0 | 0.0 | 0.0 | 0.01 | 0.01 | 0.01 | 99 | 1020.3 |
| 20260902123444 | 67 | 0 | 0.0 | 0.0 | 0.00 | 0.00 | 0.00 | 99 | 1020.0 |
| 20260902123107 | 67 | 81 | 0.0 | 1.0 | 0.00 | 0.00 | 0.00 | 99 | 1016.5 |
| 20260902122543 | 67 | 81 | 0.0 | 1.0 | 0.00 | 0.00 | 0.00 | 99 | 1019.6 |
| 20260902121643 | 67 | 81 | 0.0 | 1.0 | 0.00 | 0.00 | 0.00 | 99 | 1019.3 |
| 20260902121502 | 67 | 81 | 0.0 | 1.0 | 0.00 | 0.00 | 0.00 | 99 | 1016.2 |
| 20260902120744 | 67 | 0 | 0.0 | 0.0 | 0.00 | 0.00 | 0.00 | 99 | 1019.3 |
| 20260902120107 | 66 | 81 | 0.0 | 0.0 | 0.00 | 0.00 | 0.00 | 99 | 1015.9 |
| 20260902115844 | 67 | 80 | 0.0 | 1.0 | 0.00 | 0.00 | 0.00 | 99 | 1019.2 |
| 20260902114944 | 66 | 81 | 0.0 | 1.0 | 0.00 | 0.00 | 0.00 | 99 | 1019.0 |
| 20260902114510 | 66 | 81 | 0.0 | 2.0 | 0.00 | 0.00 | 0.00 | 99 | 1015.8 |
| 20260902114044 | 66 | 86 | 0.0 | 3.0 | 0.00 | 0.00 | 0.00 | 99 | 1019.2 |
| 20260902113144 | 66 | 0 | 0.0 | 0.0 | 0.00 | 0.00 | 0.00 | 99 | 1019.3 |
| 20260902113106 | 65 | 194 | 0.0 | 1.0 | 0.00 | 0.00 | 0.00 | 99 | 1016.0 |
| 20260902112243 | 65 | 0 | 0.0 | 0.0 | 0.00 | 0.00 | 0.00 | 99 | 1019.1 |
| 20260902111502 | 65 | 195 | 0.0 | 0.0 | 0.00 | 0.00 | 0.00 | 99 | 1015.6 |
| 20260902111344 | 65 | 0 | 0.0 | 0.0 | 0.00 | 0.00 | 0.00 | 99 | 1019.0 |
| 20260902105544 | 65 | 0 | 0.0 | 0.0 | 0.00 | 0.00 | 0.00 | 99 | 1018.9 |
| 20260902104644 | 65 | 0 | 0.0 | 0.0 | 0.00 | 0.00 | 0.00 | 99 | 1018.8 |
| 20260902104503 | 65 | 194 | 0.0 | 0.0 | 0.00 | 0.00 | 0.00 | 99 | 1015.5 |
| 20260902103744 | 65 | 0 | 0.0 | 0.0 | 0.00 | 0.00 | 0.00 | 99 | 1018.9 |
| 20260902103105 | 65 | 195 | 0.0 | 0.0 | 0.00 | 0.00 | 0.00 | 99 | 1015.6 |
| 20260902102844 | 66 | 0 | 0.0 | 0.0 | 0.00 | 0.00 | 0.00 | 99 | 1018.9 |
| 20260902101943 | 66 | 0 | 0.0 | 0.0 | 0.00 | 0.00 | 0.00 | 99 | 1018.9 |
| 20260902101502 | 65 | 194 | 0.0 | 0.0 | 0.00 | 0.00 | 0.00 | 99 | 1015.6 |
| 20260902101043 | 66 | 196 | 0.0 | 1.0 | 0.00 | 0.00 | 0.00 | 99 | 1019.0 |
| 20260902100143 | 66 | 102 | 0.0 | 1.0 | 0.00 | 0.00 | 0.00 | 98 | 1019.0 |
| 20260902094503 | 65 | 102 | 0.0 | 0.0 | 0.00 | 0.00 | 0.00 | 98 | 1016.0 |
| 20260902093444 | 66 | 0 | 0.0 | 0.0 | 0.00 | 0.00 | 0.00 | 98 | 1019.2 |
| 20260902093106 | 65 | 102 | 0.0 | 0.0 | 0.00 | 0.00 | 0.00 | 98 | 1016.0 |
| 20260902091644 | 66 | 0 | 0.0 | 0.0 | 0.00 | 0.00 | 0.00 | 98 | 1019.2 |
| 20260902091503 | 66 | 101 | 0.0 | 0.0 | 0.00 | 0.00 | 0.00 | 98 | 1015.9 |
| 20260902090743 | 66 | 0 | 0.0 | 0.0 | 0.00 | 0.00 | 0.00 | 98 | 1019.3 |
| 20260902090120 | 66 | 101 | 0.0 | 0.0 | 0.00 | 0.00 | 0.00 | 98 | 1016.0 |
| 20260902085844 | 67 | 0 | 0.0 | 0.0 | 0.00 | 0.00 | 0.00 | 98 | 1019.3 |
| 20260902084503 | 66 | 101 | 0.0 | 0.0 | 0.00 | 0.00 | 0.00 | 98 | 1016.2 |
| 20260902084043 | 66 | 0 | 0.0 | 0.0 | 0.00 | 0.00 | 0.00 | 98 | 1019.5 |
| 20260902083143 | 66 | 0 | 0.0 | 0.0 | 0.00 | 0.00 | 0.00 | 98 | 1019.4 |
| 20260902083106 | 66 | 102 | 0.0 | 1.0 | 0.00 | 0.00 | 0.00 | 98 | 1016.2 |
| 20260902082243 | 66 | 105 | 0.0 | 1.0 | 0.00 | 0.00 | 0.00 | 98 | 1019.3 |
| 20260902081503 | 66 | 144 | 0.0 | 1.0 | 0.00 | 0.00 | 0.00 | 98 | 1016.0 |
| 20260902081343 | 66 | 143 | 0.0 | 1.0 | 0.00 | 0.00 | 0.00 | 98 | 1019.2 |
| 20260902080443 | 66 | 143 | 0.0 | 1.0 | 0.00 | 0.00 | 0.00 | 98 | 1019.3 |
| 20260902075543 | 67 | 155 | 0.0 | 3.0 | 0.00 | 0.00 | 0.00 | 98 | 1019.3 |
| 20260902074643 | 67 | 156 | 0.0 | 1.0 | 0.00 | 0.00 | 0.00 | 98 | 1019.4 |
| 20260902074502 | 66 | 156 | 0.0 | 1.0 | 0.00 | 0.00 | 0.00 | 98 | 1016.1 |
| 20260902073104 | 66 | 162 | 0.0 | 2.0 | 0.00 | 0.00 | 0.00 | 98 | 1016.2 |
| 20260902071943 | 66 | 0 | 0.0 | 0.0 | 0.00 | 0.00 | 0.00 | 98 | 1019.4 |
| 20260902071502 | 66 | 211 | 0.0 | 0.0 | 0.00 | 0.00 | 0.00 | 98 | 1016.2 |
| 20260902071043 | 66 | 0 | 0.0 | 0.0 | 0.00 | 0.00 | 0.00 | 98 | 1019.4 |
| 20260902070143 | 66 | 0 | 0.0 | 0.0 | 0.00 | 0.00 | 0.00 | 98 | 1019.4 |
| 20260902064502 | 65 | 215 | 0.0 | 1.0 | 0.00 | 0.00 | 0.00 | 98 | 1016.4 |
| 20260902064343 | 66 | 216 | 0.0 | 1.0 | 0.00 | 0.00 | 0.00 | 97 | 1019.7 |
| 20260902063443 | 66 | 215 | 0.0 | 1.0 | 0.00 | 0.00 | 0.00 | 97 | 1019.7 |
| 20260902063102 | 66 | 215 | 0.0 | 0.0 | 0.00 | 0.00 | 0.00 | 97 | 1016.4 |
| 20260902062544 | 66 | 0 | 0.0 | 0.0 | 0.00 | 0.00 | 0.00 | 97 | 1019.6 |
| 20260902061643 | 66 | 216 | 1.0 | 2.0 | 0.00 | 0.00 | 0.00 | 97 | 1019.5 |
| 20260902061507 | 66 | 215 | 0.0 | 1.0 | 0.00 | 0.00 | 0.00 | 97 | 1016.3 |
| 20260902060743 | 66 | 216 | 0.0 | 1.0 | 0.00 | 0.00 | 0.00 | 98 | 1019.6 |
| 20260902060107 | 66 | 216 | 0.0 | 1.0 | 0.00 | 0.00 | 0.00 | 98 | 1016.3 |
| 20260902054943 | 66 | 0 | 0.0 | 0.0 | 0.00 | 0.00 | 0.00 | 98 | 1019.8 |
| 20260902054501 | 66 | 215 | 0.0 | 1.0 | 0.00 | 0.00 | 0.00 | 98 | 1016.5 |
| 20260902054043 | 66 | 216 | 0.0 | 1.0 | 0.00 | 0.00 | 0.00 | 98 | 1019.8 |
| 20260902053143 | 66 | 215 | 0.0 | 1.0 | 0.00 | 0.00 | 0.00 | 98 | 1019.9 |
| 20260902053108 | 65 | 216 | 0.0 | 1.0 | 0.00 | 0.00 | 0.00 | 98 | 1016.6 |
| 20260902052243 | 66 | 0 | 0.0 | 0.0 | 0.00 | 0.00 | 0.00 | 98 | 1019.8 |
| 20260902051502 | 66 | 215 | 0.0 | 0.0 | 0.00 | 0.00 | 0.00 | 98 | 1016.5 |
| 20260902051343 | 66 | 0 | 0.0 | 0.0 | 0.00 | 0.00 | 0.00 | 98 | 1019.7 |
| 20260902050443 | 66 | 0 | 0.0 | 0.0 | 0.00 | 0.00 | 0.00 | 98 | 1019.7 |
| 20260902050105 | 65 | 215 | 0.0 | 1.0 | 0.00 | 0.00 | 0.00 | 98 | 1016.5 |
| 20260902045543 | 66 | 216 | 0.0 | 1.0 | 0.00 | 0.00 | 0.00 | 98 | 1019.7 |
| 20260902044503 | 65 | 215 | 1.0 | 2.0 | 0.00 | 0.00 | 0.00 | 98 | 1016.5 |
| 20260902043743 | 66 | 216 | 1.0 | 2.0 | 0.00 | 0.00 | 0.00 | 98 | 1019.7 |
| 20260902043005 | 65 | 215 | 0.0 | 2.0 | 0.00 | 0.00 | 0.00 | 97 | 1016.3 |
| 20260902042843 | 66 | 207 | 1.0 | 2.0 | 0.00 | 0.00 | 0.00 | 97 | 1019.6 |
| 20260902041943 | 66 | 161 | 0.0 | 1.0 | 0.00 | 0.00 | 0.00 | 97 | 1019.3 |
| 20260902041603 | 66 | 162 | 0.0 | 1.0 | 0.00 | 0.00 | 0.00 | 96 | 1016.0 |
| 20260902041043 | 66 | 162 | 0.0 | 1.0 | 0.00 | 0.00 | 0.00 | 96 | 1019.3 |
| 20260902040143 | 67 | 162 | 0.0 | 1.0 | 0.00 | 0.00 | 0.00 | 95 | 1019.0 |
| 20260902040002 | 67 | 162 | 0.0 | 1.0 | 0.00 | 0.00 | 0.00 | 95 | 1015.7 |
| 20260902035243 | 67 | 0 | 0.0 | 0.0 | 0.00 | 0.00 | 0.00 | 96 | 1018.9 |
| 20260902034605 | 67 | 162 | 0.0 | 0.0 | 0.00 | 0.00 | 0.00 | 95 | 1015.4 |
| 20260902034343 | 67 | 0 | 0.0 | 0.0 | 0.00 | 0.00 | 0.00 | 96 | 1018.7 |
| 20260902033443 | 67 | 0 | 0.0 | 0.0 | 0.00 | 0.00 | 0.00 | 95 | 1018.8 |
| 20260902033005 | 67 | 162 | 0.0 | 0.0 | 0.00 | 0.00 | 0.00 | 95 | 1015.4 |
| 20260902031643 | 68 | 0 | 0.0 | 0.0 | 0.00 | 0.00 | 0.00 | 95 | 1018.5 |
| 20260902031602 | 68 | 162 | 0.0 | 0.0 | 0.00 | 0.00 | 0.00 | 95 | 1015.2 |
| 20260902030743 | 68 | 0 | 0.0 | 0.0 | 0.00 | 0.00 | 0.00 | 94 | 1018.5 |
| 20260902030002 | 68 | 162 | 0.0 | 0.0 | 0.00 | 0.00 | 0.00 | 93 | 1015.2 |
| 20260902025843 | 68 | 0 | 0.0 | 0.0 | 0.00 | 0.00 | 0.00 | 93 | 1018.5 |
| 20260902024943 | 68 | 0 | 0.0 | 0.0 | 0.00 | 0.00 | 0.00 | 93 | 1018.5 |
| 20260902024605 | 68 | 162 | 0.0 | 0.0 | 0.00 | 0.00 | 0.00 | 93 | 1015.2 |
| 20260902024043 | 69 | 158 | 0.0 | 2.0 | 0.00 | 0.00 | 0.00 | 93 | 1018.4 |
| 20260902023143 | 68 | 134 | 0.0 | 2.0 | 0.00 | 0.00 | 0.00 | 93 | 1018.5 |
| 20260902023111 | 68 | 134 | 0.0 | 1.0 | 0.00 | 0.00 | 0.00 | 93 | 1015.2 |
| 20260902022244 | 68 | 123 | 0.0 | 1.0 | 0.00 | 0.00 | 0.00 | 93 | 1018.6 |
| 20260902021502 | 68 | 124 | 0.0 | 0.0 | 0.00 | 0.00 | 0.00 | 93 | 1015.4 |
| 20260902021343 | 69 | 0 | 0.0 | 0.0 | 0.00 | 0.00 | 0.00 | 92 | 1018.8 |
| 20260902020443 | 69 | 0 | 0.0 | 0.0 | 0.00 | 0.00 | 0.00 | 92 | 1018.8 |
| 20260902020104 | 69 | 124 | 0.0 | 0.0 | 0.00 | 0.00 | 0.00 | 91 | 1015.4 |
| 20260902015543 | 70 | 124 | 0.0 | 1.0 | 0.00 | 0.00 | 0.00 | 91 | 1018.7 |
| 20260902014643 | 70 | 133 | 0.0 | 1.0 | 0.00 | 0.00 | 0.00 | 90 | 1019.0 |
| 20260902014505 | 70 | 146 | 0.0 | 1.0 | 0.00 | 0.00 | 0.00 | 90 | 1015.6 |
| 20260902013743 | 70 | 85 | 1.0 | 5.0 | 0.00 | 0.00 | 0.00 | 90 | 1019.1 |
| 20260902013107 | 70 | 82 | 1.0 | 3.0 | 0.00 | 0.00 | 0.00 | 91 | 1015.9 |
| 20260902012843 | 71 | 184 | 0.0 | 4.0 | 0.00 | 0.00 | 0.00 | 92 | 1019.3 |
| 20260902011943 | 71 | 197 | 1.0 | 2.0 | 0.00 | 0.00 | 0.00 | 92 | 1018.9 |
| 20260902011505 | 70 | 193 | 0.0 | 2.0 | 0.00 | 0.00 | 0.00 | 91 | 1015.4 |
| 20260902011043 | 71 | 341 | 0.0 | 1.0 | 0.00 | 0.00 | 0.00 | 92 | 1018.9 |
| 20260902010112 | 70 | 342 | 0.0 | 1.0 | 0.00 | 0.00 | 0.00 | 92 | 1014.8 |
| 20260902005243 | 70 | 341 | 0.0 | 1.0 | 0.00 | 0.00 | 0.00 | 92 | 1018.2 |
| 20260902004502 | 70 | 341 | 0.0 | 0.0 | 0.00 | 0.00 | 0.00 | 91 | 1014.7 |
| 20260902004343 | 70 | 0 | 0.0 | 0.0 | 0.00 | 0.00 | 0.00 | 91 | 1018.0 |
| 20260902003443 | 70 | 342 | 0.0 | 1.0 | 0.00 | 0.00 | 0.00 | 90 | 1018.0 |
| 20260902003103 | 70 | 342 | 0.0 | 1.0 | 0.00 | 0.00 | 0.00 | 90 | 1014.7 |
| 20260902002543 | 71 | 342 | 0.0 | 1.0 | 0.00 | 0.00 | 0.00 | 90 | 1018.2 |
| 20260902001502 | 71 | 341 | 0.0 | 1.0 | 0.00 | 0.00 | 0.00 | 89 | 1014.5 |
| 20260902000743 | 72 | 338 | 1.0 | 3.0 | 0.00 | 0.00 | 0.00 | 88 | 1017.9 |
| 20260902000106 | 72 | 342 | 1.0 | 3.0 | 0.00 | 0.00 | 0.00 | 87 | 1014.2 |
| 20260901234943 | 72 | 327 | 3.0 | 6.0 | 0.00 | 0.00 | 0.00 | 86 | 1017.4 |
| 20260901234503 | 72 | 330 | 2.0 | 6.0 | 0.00 | 0.00 | 0.00 | 85 | 1013.8 |
| 20260901234043 | 73 | 330 | 2.0 | 6.0 | 0.00 | 0.00 | 0.00 | 85 | 1017.2 |
| 20260901233143 | 73 | 325 | 2.0 | 3.0 | 0.00 | 0.00 | 0.00 | 85 | 1017.2 |
| 20260901233102 | 73 | 333 | 1.0 | 4.0 | 0.00 | 0.00 | 0.00 | 85 | 1013.6 |
| 20260901231504 | 73 | 323 | 3.0 | 5.0 | 0.00 | 0.00 | 0.00 | 84 | 1013.2 |
| 20260901231343 | 74 | 322 | 3.0 | 5.0 | 0.00 | 0.00 | 0.00 | 84 | 1016.9 |
| 20260901230443 | 74 | 331 | 3.0 | 6.0 | 0.00 | 0.00 | 0.00 | 83 | 1017.1 |
| 20260901225543 | 75 | 345 | 2.0 | 5.0 | 0.00 | 0.00 | 0.00 | 80 | 1017.4 |
| 20260901224643 | 76 | 349 | 2.0 | 3.0 | 0.00 | 0.00 | 0.00 | 79 | 1017.3 |
| 20260901224503 | 76 | 333 | 1.0 | 3.0 | 0.00 | 0.00 | 0.00 | 79 | 1013.8 |
| 20260901223743 | 77 | 342 | 2.0 | 3.0 | 0.00 | 0.00 | 0.00 | 78 | 1017.5 |
| 20260901223103 | 78 | 312 | 1.0 | 3.0 | 0.00 | 0.00 | 0.00 | 78 | 1013.9 |
| 20260901222843 | 78 | 28 | 0.0 | 2.0 | 0.00 | 0.00 | 0.00 | 78 | 1017.3 |
| 20260901221943 | 79 | 8 | 2.0 | 4.0 | 0.00 | 0.00 | 0.00 | 78 | 1017.3 |
| 20260901221502 | 79 | 19 | 1.0 | 3.0 | 0.00 | 0.00 | 0.00 | 78 | 1013.9 |
| 20260901220143 | 81 | 355 | 4.0 | 10.0 | 0.00 | 0.00 | 0.00 | 74 | 1017.5 |
| 20260901220117 | 81 | 324 | 3.0 | 9.0 | 0.00 | 0.00 | 0.00 | 74 | 1013.9 |
| 20260901214503 | 82 | 93 | 2.0 | 8.0 | 0.00 | 0.00 | 0.00 | 73 | 1013.4 |
| 20260901214343 | 83 | 35 | 2.0 | 8.0 | 0.00 | 0.00 | 0.00 | 73 | 1016.8 |
| 20260901213443 | 84 | 15 | 3.0 | 8.0 | 0.00 | 0.00 | 0.00 | 71 | 1016.8 |
| 20260901213107 | 84 | 19 | 1.0 | 7.0 | 0.00 | 0.00 | 0.00 | 71 | 1013.3 |